Powrót do katalogu

COSMOS 2614

AktywnyMilitariaSSO
NORAD 68764·PAYLOAD·🇷🇺 Russia

Wystrzelony Apr 16, 2026 z Plesetsk Cosmodrome

Loading…

Następne Przeloty (najbliższe 24 godziny)

TLE

ŚwieżeSource: Space-Track

Epoka: Sep 14, 2026, 23:09 UTC

1 68764U 26083K   26257.96478318  .00001322  00000-0  94875-4 0  9993
2 68764  97.7909  36.0116 0007828  76.6911 283.5188 15.06095964 22718

Śledź COSMOS 2614 w czasie rzeczywistym z AllMySat

Download on the App Store